Location: Владивосток
(43.1151°N, 131.8856°E)
Time: 05:07:56
(UTC+10:00)

LO-87 - Pass Details

Date: 01 July 2022
Orbit: 451 x 466 km, 97.4° (Epoch: 08 August)

Event Time Altitude Azimuth Distance (km) Brightness Sun altitude
Exits shadow 00:36:46 53° 29° (NNE) 573 ? -23.1°
Drops below altitude 10° 00:39:40 10° 354° (N) 1,619 ? -23.2°
Sets 00:41:45 0° 352° (N) 2,503 ? -23.3°
